| time (UTC) | temp F | wind direction | speed MPH | gust MPH | rain 1hr in | rain 24hr in | rain mn in | humidity % | barometer mb |
| 20260506084517 | 32 | 37 | 0.0 | 0.0 | 0.00 | 0.86 | 0.01 | 94 | 1017.5 |
| 20260506084008 | 32 | 37 | 0.0 | 0.0 | 0.00 | 0.86 | 0.01 | 94 | 1017.6 |
| 20260506083510 | 32 | 37 | 0.0 | 0.0 | 0.00 | 0.87 | 0.01 | 94 | 1017.6 |
| 20260506083019 | 32 | 37 | 0.0 | 0.0 | 0.00 | 0.87 | 0.01 | 94 | 1017.6 |
| 20260506082513 | 32 | 37 | 0.0 | 0.0 | 0.00 | 0.88 | 0.01 | 94 | 1017.6 |
| 20260506082013 | 32 | 37 | 0.0 | 0.0 | 0.00 | 0.89 | 0.01 | 94 | 1017.8 |
| 20260506081524 | 32 | 37 | 0.0 | 0.0 | 0.00 | 0.90 | 0.01 | 94 | 1017.8 |
| 20260506081011 | 32 | 37 | 0.0 | 0.0 | 0.00 | 0.92 | 0.01 | 94 | 1017.7 |
| 20260506080511 | 32 | 37 | 0.0 | 0.0 | 0.00 | 0.93 | 0.01 | 94 | 1017.8 |
| 20260506073514 | 32 | 283 | 0.0 | 0.0 | 0.01 | 0.93 | 0.01 | 94 | 1017.9 |
| 20260506073018 | 32 | 283 | 0.0 | 1.0 | 0.01 | 0.93 | 0.01 | 94 | 1018.0 |
| 20260506072512 | 32 | 283 | 0.0 | 1.0 | 0.01 | 0.93 | 0.01 | 94 | 1018.0 |
| 20260506072009 | 32 | 283 | 0.0 | 1.0 | 0.01 | 0.94 | 0.01 | 94 | 1018.0 |
| 20260506071524 | 32 | 2 | 0.0 | 1.0 | 0.01 | 0.94 | 0.01 | 94 | 1017.9 |
| 20260506071006 | 32 | 205 | 0.0 | 1.0 | 0.01 | 0.94 | 0.01 | 94 | 1017.8 |
| 20260506070507 | 32 | 205 | 0.0 | 1.0 | 0.01 | 0.94 | 0.01 | 94 | 1017.8 |
| 20260506062503 | 32 | 358 | 0.0 | 3.0 | 0.00 | 0.99 | 0.00 | 93 | 1017.8 |
| 20260506062004 | 32 | 50 | 0.0 | 3.0 | 0.00 | 0.99 | 0.00 | 93 | 1017.8 |
| 20260506061507 | 32 | 85 | 0.0 | 4.0 | 0.00 | 0.99 | 0.00 | 93 | 1017.7 |
| 20260506061004 | 32 | 348 | 1.0 | 4.0 | 0.00 | 0.99 | 0.00 | 93 | 1017.6 |
| 20260506060504 | 32 | 41 | 0.0 | 3.0 | 0.00 | 0.99 | 0.00 | 93 | 1017.6 |
| 20260506051003 | 33 | 4 | 0.0 | 0.0 | 0.01 | 0.99 | 0.99 | 93 | 1016.8 |
| 20260506050503 | 33 | 4 | 0.0 | 0.0 | 0.01 | 0.99 | 0.99 | 93 | 1016.8 |
| 20260506045005 | 33 | 4 | 0.0 | 0.0 | 0.01 | 0.98 | 0.98 | 93 | 1016.8 |
| 20260506044510 | 33 | 4 | 0.0 | 0.0 | 0.01 | 0.98 | 0.98 | 93 | 1016.8 |
| 20260506044006 | 33 | 4 | 0.0 | 0.0 | 0.01 | 0.98 | 0.98 | 93 | 1016.8 |
| 20260506043503 | 33 | 4 | 0.0 | 0.0 | 0.01 | 0.98 | 0.98 | 93 | 1016.8 |
| 20260506043008 | 33 | 4 | 0.0 | 0.0 | 0.01 | 0.98 | 0.98 | 93 | 1016.7 |
| 20260506042504 | 33 | 4 | 0.0 | 0.0 | 0.02 | 0.98 | 0.98 | 93 | 1016.7 |
| 20260506042007 | 33 | 4 | 0.0 | 0.0 | 0.02 | 0.98 | 0.98 | 93 | 1016.8 |
| 20260506041514 | 33 | 4 | 0.0 | 0.0 | 0.02 | 0.98 | 0.98 | 93 | 1016.7 |
| 20260506041008 | 33 | 4 | 0.0 | 0.0 | 0.02 | 0.98 | 0.98 | 93 | 1016.7 |
| 20260506040511 | 33 | 4 | 0.0 | 0.0 | 0.02 | 0.98 | 0.98 | 93 | 1016.6 |
| 20260506040019 | 33 | 4 | 0.0 | 0.0 | 0.02 | 0.98 | 0.98 | 93 | 1016.6 |
| 20260506035503 | 33 | 4 | 0.0 | 0.0 | 0.01 | 0.97 | 0.97 | 93 | 1016.5 |
| 20260506033505 | 33 | 4 | 0.0 | 0.0 | 0.01 | 0.97 | 0.97 | 93 | 1016.4 |
| 20260506033006 | 33 | 4 | 0.0 | 0.0 | 0.02 | 0.97 | 0.97 | 93 | 1016.4 |
| 20260506032503 | 33 | 4 | 0.0 | 0.0 | 0.01 | 0.96 | 0.96 | 93 | 1016.3 |
| 20260506032011 | 33 | 4 | 0.0 | 0.0 | 0.01 | 0.96 | 0.96 | 93 | 1016.2 |
| 20260506031513 | 33 | 4 | 0.0 | 0.0 | 0.01 | 0.96 | 0.96 | 93 | 1016.1 |
| 20260506025010 | 33 | 4 | 0.0 | 0.0 | 0.01 | 0.96 | 0.96 | 93 | 1016.0 |
| 20260506024521 | 33 | 4 | 0.0 | 0.0 | 0.01 | 0.96 | 0.96 | 93 | 1015.9 |
| 20260506021507 | 33 | 4 | 0.0 | 0.0 | 0.01 | 0.95 | 0.95 | 93 | 1015.1 |
| 20260506020016 | 33 | 4 | 0.0 | 0.0 | 0.01 | 0.95 | 0.95 | 93 | 1014.9 |
| 20260506014520 | 33 | 4 | 0.0 | 1.0 | 0.01 | 0.96 | 0.95 | 93 | 1014.8 |
| 20260506014008 | 33 | 3 | 0.0 | 0.0 | 0.01 | 0.96 | 0.95 | 93 | 1014.8 |
| 20260506013021 | 33 | 3 | 0.0 | 1.0 | 0.01 | 0.96 | 0.95 | 93 | 1014.6 |
| 20260506011506 | 33 | 3 | 0.0 | 0.0 | 0.00 | 0.95 | 0.94 | 93 | 1014.4 |
| 20260506005003 | 33 | 3 | 0.0 | 0.0 | 0.00 | 0.97 | 0.94 | 93 | 1014.5 |
| 20260506004522 | 33 | 3 | 0.0 | 1.0 | 0.00 | 0.97 | 0.94 | 93 | 1014.6 |
| 20260506004005 | 33 | 3 | 0.0 | 2.0 | 0.00 | 0.97 | 0.94 | 93 | 1014.6 |
| 20260506003508 | 33 | 3 | 0.0 | 2.0 | 0.00 | 0.98 | 0.94 | 93 | 1014.5 |
| 20260506002011 | 33 | 321 | 0.0 | 2.0 | 0.00 | 0.98 | 0.94 | 93 | 1014.3 |
| 20260506001524 | 33 | 321 | 0.0 | 2.0 | 0.00 | 0.98 | 0.94 | 93 | 1014.4 |
| 20260506001012 | 33 | 316 | 0.0 | 3.0 | 0.01 | 0.99 | 0.94 | 92 | 1014.3 |
| 20260506000504 | 33 | 351 | 0.0 | 3.0 | 0.01 | 0.99 | 0.94 | 93 | 1014.3 |
| 20260506000007 | 33 | 355 | 0.0 | 3.0 | 0.01 | 0.99 | 0.94 | 92 | 1014.3 |
| 20260505235504 | 33 | 341 | 1.0 | 4.0 | 0.01 | 0.99 | 0.94 | 92 | 1014.3 |
| 20260505234003 | 33 | 280 | 0.0 | 2.0 | 0.01 | 0.99 | 0.94 | 92 | 1013.9 |
| 20260505233505 | 33 | 281 | 0.0 | 2.0 | 0.01 | 0.99 | 0.94 | 92 | 1013.9 |
| 20260505232508 | 33 | 275 | 0.0 | 2.0 | 0.02 | 1.01 | 0.94 | 92 | 1014.0 |
| 20260505231528 | 33 | 270 | 0.0 | 3.0 | 0.02 | 1.01 | 0.94 | 92 | 1014.3 |
| 20260505231006 | 33 | 270 | 0.0 | 3.0 | 0.02 | 1.00 | 0.93 | 92 | 1014.3 |
| 20260505230509 | 33 | 287 | 0.0 | 3.0 | 0.02 | 1.00 | 0.93 | 92 | 1014.2 |
| 20260505230034 | 33 | 287 | 0.0 | 3.0 | 0.02 | 1.00 | 0.93 | 92 | 1014.3 |
| 20260505225508 | 33 | 300 | 0.0 | 4.0 | 0.03 | 1.00 | 0.93 | 92 | 1014.3 |
| 20260505225005 | 33 | 259 | 1.0 | 4.0 | 0.03 | 1.00 | 0.93 | 92 | 1014.3 |
| 20260505224506 | 34 | 270 | 1.0 | 4.0 | 0.04 | 1.00 | 0.93 | 92 | 1014.3 |
| 20260505224004 | 34 | 253 | 1.0 | 4.0 | 0.05 | 1.00 | 0.93 | 93 | 1014.3 |
| 20260505223507 | 34 | 344 | 1.0 | 4.0 | 0.05 | 1.00 | 0.93 | 93 | 1014.2 |
| 20260505223011 | 33 | 34 | 0.0 | 6.0 | 0.06 | 1.00 | 0.93 | 92 | 1014.1 |
| 20260505222511 | 34 | 310 | 1.0 | 6.0 | 0.05 | 0.99 | 0.92 | 93 | 1014.2 |
| 20260505222013 | 34 | 270 | 2.0 | 6.0 | 0.05 | 0.99 | 0.92 | 93 | 1014.1 |
| 20260505221519 | 33 | 283 | 1.0 | 8.0 | 0.06 | 0.99 | 0.92 | 93 | 1014.1 |
| 20260505220506 | 33 | 258 | 3.0 | 8.0 | 0.06 | 0.98 | 0.91 | 92 | 1014.1 |
| 20260505220024 | 33 | 49 | 1.0 | 6.0 | 0.06 | 0.98 | 0.91 | 92 | 1013.9 |
| 20260505215508 | 33 | 290 | 1.0 | 6.0 | 0.06 | 0.97 | 0.90 | 92 | 1013.9 |
| 20260505215011 | 33 | 215 | 2.0 | 8.0 | 0.06 | 0.97 | 0.90 | 92 | 1014.1 |
| 20260505214525 | 33 | 27 | 1.0 | 8.0 | 0.06 | 0.96 | 0.89 | 92 | 1014.1 |
| 20260505214009 | 33 | 347 | 3.0 | 8.0 | 0.05 | 0.95 | 0.88 | 92 | 1014.1 |
| 20260505213503 | 33 | 19 | 2.0 | 7.0 | 0.05 | 0.95 | 0.88 | 92 | 1014.0 |
| 20260505213013 | 33 | 8 | 2.0 | 7.0 | 0.05 | 0.94 | 0.87 | 92 | 1014.1 |
| 20260505212506 | 33 | 324 | 2.0 | 7.0 | 0.05 | 0.94 | 0.87 | 92 | 1014.1 |
| 20260505212007 | 33 | 283 | 1.0 | 8.0 | 0.06 | 0.94 | 0.87 | 92 | 1014.0 |
| 20260505211523 | 33 | 314 | 2.0 | 8.0 | 0.06 | 0.93 | 0.86 | 92 | 1014.1 |
| 20260505211006 | 33 | 307 | 3.0 | 9.0 | 0.06 | 0.93 | 0.86 | 92 | 1014.1 |
| 20260505210510 | 33 | 9 | 2.0 | 9.0 | 0.05 | 0.92 | 0.85 | 92 | 1014.1 |
| 20260505210020 | 33 | 305 | 2.0 | 5.0 | 0.06 | 0.92 | 0.85 | 92 | 1014.3 |
| 20260505205513 | 33 | 14 | 1.0 | 4.0 | 0.05 | 0.91 | 0.84 | 92 | 1014.3 |
| 20260505205009 | 33 | 8 | 1.0 | 4.0 | 0.05 | 0.91 | 0.84 | 92 | 1014.3 |
| 20260505204524 | 33 | 229 | 1.0 | 4.0 | 0.04 | 0.90 | 0.83 | 92 | 1014.3 |
| 20260505204009 | 33 | 71 | 1.0 | 6.0 | 0.05 | 0.90 | 0.83 | 92 | 1014.3 |
| 20260505203510 | 33 | 11 | 2.0 | 6.0 | 0.05 | 0.90 | 0.83 | 92 | 1014.2 |
| 20260505203027 | 33 | 8 | 1.0 | 4.0 | 0.05 | 0.89 | 0.82 | 92 | 1014.4 |
| 20260505202512 | 33 | 88 | 1.0 | 4.0 | 0.05 | 0.89 | 0.82 | 92 | 1014.4 |
| 20260505202004 | 33 | 57 | 1.0 | 6.0 | 0.04 | 0.88 | 0.81 | 91 | 1014.6 |
| 20260505201511 | 33 | 330 | 1.0 | 6.0 | 0.03 | 0.87 | 0.80 | 91 | 1014.7 |
| 20260505201004 | 33 | 252 | 2.0 | 6.0 | 0.03 | 0.87 | 0.80 | 91 | 1014.9 |
| 20260505200508 | 33 | 321 | 0.0 | 7.0 | 0.04 | 0.87 | 0.80 | 91 | 1014.7 |
| 20260505200014 | 33 | 59 | 2.0 | 11.0 | 0.03 | 0.86 | 0.79 | 91 | 1014.7 |
| 20260505195507 | 33 | 1 | 3.0 | 11.0 | 0.03 | 0.86 | 0.79 | 91 | 1014.8 |
| 20260505195007 | 34 | 10 | 2.0 | 9.0 | 0.03 | 0.86 | 0.79 | 91 | 1014.7 |
| 20260505194520 | 34 | 257 | 3.0 | 11.0 | 0.03 | 0.86 | 0.79 | 90 | 1014.7 |
| 20260505194011 | 34 | 38 | 3.0 | 11.0 | 0.02 | 0.85 | 0.78 | 90 | 1014.6 |
| 20260505193512 | 34 | 70 | 3.0 | 9.0 | 0.03 | 0.85 | 0.78 | 89 | 1014.6 |
| 20260505193021 | 35 | 348 | 4.0 | 15.0 | 0.02 | 0.84 | 0.77 | 88 | 1014.7 |
| 20260505192511 | 36 | 5 | 3.0 | 15.0 | 0.03 | 0.84 | 0.77 | 87 | 1014.6 |
| 20260505192008 | 38 | 340 | 5.0 | 11.0 | 0.03 | 0.84 | 0.77 | 86 | 1014.7 |
| 20260505191533 | 39 | 23 | 1.0 | 4.0 | 0.04 | 0.84 | 0.77 | 88 | 1014.4 |
| 20260505191009 | 39 | 331 | 0.0 | 4.0 | 0.05 | 0.84 | 0.77 | 89 | 1014.4 |
| 20260505190504 | 39 | 33 | 0.0 | 3.0 | 0.04 | 0.83 | 0.76 | 89 | 1014.4 |
| 20260505190014 | 39 | 23 | 0.0 | 3.0 | 0.05 | 0.83 | 0.76 | 89 | 1014.4 |
| 20260505185509 | 39 | 285 | 1.0 | 2.0 | 0.05 | 0.83 | 0.76 | 88 | 1014.5 |
| 20260505185005 | 39 | 281 | 0.0 | 2.0 | 0.06 | 0.83 | 0.76 | 89 | 1014.6 |
| 20260505184514 | 39 | 330 | 0.0 | 2.0 | 0.07 | 0.83 | 0.76 | 90 | 1014.6 |
| 20260505184006 | 39 | 325 | 0.0 | 2.0 | 0.08 | 0.83 | 0.76 | 89 | 1014.6 |
| 20260505183509 | 38 | 328 | 0.0 | 2.0 | 0.07 | 0.82 | 0.75 | 90 | 1014.6 |
| 20260505183022 | 38 | 331 | 0.0 | 2.0 | 0.08 | 0.82 | 0.75 | 89 | 1014.4 |
| 20260505182508 | 38 | 331 | 0.0 | 2.0 | 0.08 | 0.81 | 0.74 | 89 | 1014.5 |
| 20260505182018 | 38 | 335 | 0.0 | 2.0 | 0.08 | 0.81 | 0.74 | 89 | 1014.6 |
| 20260505181523 | 37 | 279 | 0.0 | 2.0 | 0.08 | 0.80 | 0.73 | 87 | 1014.8 |
| 20260505181012 | 37 | 279 | 0.0 | 1.0 | 0.08 | 0.79 | 0.72 | 87 | 1014.9 |
| 20260505180510 | 37 | 279 | 0.0 | 1.0 | 0.09 | 0.79 | 0.72 | 87 | 1015.0 |
| 20260505180028 | 37 | 279 | 0.0 | 2.0 | 0.09 | 0.78 | 0.71 | 88 | 1015.0 |
| 20260505175512 | 38 | 279 | 0.0 | 2.0 | 0.10 | 0.78 | 0.71 | 88 | 1015.0 |
| 20260505175004 | 38 | 279 | 0.0 | 0.0 | 0.11 | 0.77 | 0.70 | 87 | 1015.0 |
| 20260505174511 | 38 | 279 | 0.0 | 1.0 | 0.11 | 0.76 | 0.69 | 88 | 1015.0 |
| 20260505174010 | 38 | 279 | 0.0 | 1.0 | 0.11 | 0.75 | 0.68 | 89 | 1014.9 |
| 20260505173509 | 38 | 279 | 0.0 | 2.0 | 0.12 | 0.75 | 0.68 | 89 | 1014.9 |
| 20260505173019 | 38 | 279 | 0.0 | 2.0 | 0.12 | 0.74 | 0.67 | 89 | 1014.9 |
| 20260505172512 | 38 | 279 | 0.0 | 2.0 | 0.12 | 0.73 | 0.66 | 88 | 1014.9 |
| 20260505172008 | 38 | 275 | 0.0 | 2.0 | 0.14 | 0.73 | 0.66 | 88 | 1015.1 |
| 20260505171531 | 38 | 162 | 0.0 | 5.0 | 0.14 | 0.72 | 0.65 | 88 | 1015.4 |
| 20260505171008 | 38 | 308 | 2.0 | 5.0 | 0.15 | 0.71 | 0.64 | 89 | 1015.6 |
| 20260505170509 | 38 | 308 | 2.0 | 4.0 | 0.15 | 0.70 | 0.63 | 89 | 1015.5 |
| 20260505170025 | 38 | 154 | 1.0 | 3.0 | 0.15 | 0.69 | 0.62 | 88 | 1015.3 |
| 20260505165510 | 38 | 270 | 0.0 | 2.0 | 0.16 | 0.68 | 0.61 | 90 | 1015.3 |
| 20260505165011 | 38 | 270 | 0.0 | 2.0 | 0.15 | 0.66 | 0.58 | 90 | 1015.3 |
| 20260505164527 | 38 | 270 | 0.0 | 2.0 | 0.15 | 0.65 | 0.58 | 90 | 1015.1 |
| 20260505164011 | 37 | 270 | 0.0 | 1.0 | 0.16 | 0.64 | 0.57 | 91 | 1015.2 |
| 20260505163508 | 37 | 270 | 0.0 | 0.0 | 0.16 | 0.63 | 0.56 | 91 | 1015.2 |
| 20260505163014 | 37 | 270 | 0.0 | 0.0 | 0.16 | 0.62 | 0.55 | 91 | 1015.1 |
| 20260505162506 | 37 | 270 | 0.0 | 0.0 | 0.16 | 0.61 | 0.54 | 91 | 1015.2 |
| 20260505162010 | 36 | 270 | 0.0 | 0.0 | 0.15 | 0.58 | 0.52 | 92 | 1015.2 |
| 20260505161518 | 36 | 270 | 0.0 | 0.0 | 0.15 | 0.58 | 0.51 | 91 | 1015.3 |
| 20260505161008 | 36 | 270 | 0.0 | 0.0 | 0.15 | 0.56 | 0.49 | 92 | 1015.3 |
| 20260505160511 | 35 | 270 | 0.0 | 2.0 | 0.15 | 0.55 | 0.48 | 92 | 1015.5 |
| 20260505153036 | 35 | 270 | 0.0 | 1.0 | 0.08 | 0.46 | 0.39 | 92 | 1015.6 |
| 20260505152511 | 35 | 270 | 0.0 | 1.0 | 0.07 | 0.45 | 0.38 | 92 | 1015.5 |
| 20260505152011 | 34 | 270 | 0.0 | 3.0 | 0.06 | 0.44 | 0.37 | 92 | 1015.6 |
| 20260505151515 | 34 | 270 | 0.0 | 3.0 | 0.05 | 0.43 | 0.36 | 92 | 1015.6 |
| 20260505151006 | 34 | 275 | 0.0 | 1.0 | 0.03 | 0.41 | 0.34 | 92 | 1015.6 |
| 20260505150509 | 34 | 275 | 0.0 | 1.0 | 0.02 | 0.40 | 0.33 | 92 | 1015.7 |
| 20260505140511 | 33 | 275 | 0.0 | 1.0 | 0.00 | 0.38 | 0.31 | 91 | 1015.7 |
| 20260505125011 | 33 | 270 | 0.0 | 1.0 | 0.03 | 0.38 | 0.31 | 90 | 1015.2 |
| 20260505124517 | 33 | 270 | 0.0 | 0.0 | 0.04 | 0.38 | 0.31 | 90 | 1015.0 |
| 20260505124010 | 34 | 270 | 0.0 | 2.0 | 0.05 | 0.38 | 0.31 | 90 | 1014.9 |
| 20260505123506 | 34 | 270 | 0.0 | 2.0 | 0.05 | 0.38 | 0.31 | 90 | 1015.0 |
| 20260505123003 | 34 | 281 | 0.0 | 1.0 | 0.05 | 0.38 | 0.31 | 90 | 1015.0 |
| 20260505122504 | 34 | 260 | 0.0 | 1.0 | 0.05 | 0.38 | 0.31 | 90 | 1015.0 |
| 20260505122004 | 35 | 260 | 0.0 | 3.0 | 0.05 | 0.38 | 0.31 | 90 | 1014.9 |
| 20260505121506 | 35 | 260 | 0.0 | 3.0 | 0.05 | 0.38 | 0.31 | 90 | 1014.9 |
| 20260505121005 | 35 | 260 | 1.0 | 3.0 | 0.04 | 0.37 | 0.30 | 90 | 1014.9 |
| 20260505120508 | 35 | 282 | 0.0 | 4.0 | 0.04 | 0.37 | 0.30 | 91 | 1014.9 |
| 20260505115505 | 35 | 300 | 0.0 | 3.0 | 0.04 | 0.36 | 0.29 | 91 | 1014.9 |
| 20260505114003 | 36 | 340 | 0.0 | 6.0 | 0.02 | 0.33 | 0.26 | 91 | 1014.6 |
| 20260505113504 | 36 | 44 | 1.0 | 6.0 | 0.02 | 0.33 | 0.26 | 91 | 1014.6 |
| 20260505113007 | 35 | 354 | 2.0 | 6.0 | 0.02 | 0.33 | 0.26 | 92 | 1014.6 |
| 20260505112507 | 35 | 294 | 0.0 | 4.0 | 0.02 | 0.33 | 0.26 | 91 | 1014.5 |
| 20260505112007 | 35 | 275 | 0.0 | 4.0 | 0.03 | 0.33 | 0.26 | 91 | 1014.5 |
| 20260505111505 | 35 | 308 | 1.0 | 4.0 | 0.03 | 0.33 | 0.26 | 91 | 1014.5 |
| 20260505111005 | 35 | 254 | 1.0 | 4.0 | 0.04 | 0.33 | 0.26 | 91 | 1014.5 |
| 20260505110504 | 35 | 296 | 1.0 | 4.0 | 0.04 | 0.33 | 0.26 | 91 | 1014.3 |
| 20260505102007 | 35 | 17 | 2.0 | 10.0 | 0.06 | 0.30 | 0.23 | 89 | 1014.1 |
| 20260505101512 | 36 | 219 | 2.0 | 10.0 | 0.07 | 0.30 | 0.23 | 89 | 1014.1 |
| 20260505101006 | 36 | 259 | 2.0 | 8.0 | 0.06 | 0.29 | 0.22 | 89 | 1014.1 |
| 20260505100507 | 37 | 246 | 3.0 | 9.0 | 0.06 | 0.29 | 0.22 | 89 | 1014.0 |
| 20260505100011 | 37 | 7 | 2.0 | 11.0 | 0.06 | 0.28 | 0.21 | 89 | 1013.9 |
| 20260505095507 | 37 | 354 | 4.0 | 11.0 | 0.05 | 0.27 | 0.20 | 89 | 1014.0 |
| 20260505095009 | 38 | 256 | 5.0 | 11.0 | 0.04 | 0.26 | 0.19 | 89 | 1013.9 |
| 20260505094514 | 38 | 293 | 2.0 | 10.0 | 0.04 | 0.25 | 0.18 | 90 | 1013.7 |
| 20260505094007 | 38 | 49 | 3.0 | 10.0 | 0.04 | 0.25 | 0.18 | 89 | 1013.8 |
| 20260505093505 | 38 | 233 | 3.0 | 13.0 | 0.05 | 0.25 | 0.18 | 89 | 1013.8 |
| 20260505093014 | 38 | 259 | 3.0 | 13.0 | 0.04 | 0.24 | 0.17 | 88 | 1013.7 |
| 20260505092505 | 39 | 281 | 4.0 | 12.0 | 0.05 | 0.24 | 0.17 | 88 | 1013.7 |
| 20260505092009 | 40 | 281 | 4.0 | 9.0 | 0.06 | 0.24 | 0.17 | 89 | 1013.5 |
| 20260505091508 | 40 | 283 | 2.0 | 7.0 | 0.06 | 0.23 | 0.16 | 89 | 1013.4 |
| 20260505091007 | 40 | 283 | 2.0 | 10.0 | 0.08 | 0.23 | 0.16 | 89 | 1013.3 |
| 20260505090504 | 40 | 282 | 2.0 | 10.0 | 0.09 | 0.23 | 0.16 | 89 | 1013.3 |
| 20260505090011 | 41 | 287 | 2.0 | 9.0 | 0.08 | 0.22 | 0.15 | 89 | 1013.4 |
| 20260505085507 | 41 | 282 | 3.0 | 9.0 | 0.08 | 0.22 | 0.15 | 89 | 1013.5 |
| 20260505085007 | 41 | 279 | 3.0 | 8.0 | 0.08 | 0.22 | 0.15 | 89 | 1013.4 |